Wind_Speed
10 8 7 6 6 7 5 6 6 6 7 6 4 3 4 6 7 6 7 5 8 10 10 10 16 18 22 20 24 24 23 24 15 20 26 28 27 25 22 19 17 13 11
11 8 8 6 7 7 6 7 5 6 6 6 5 6 7 8 8 7 10 9 10 10 11 11 15 17 20 19 20 21 25 27 24 22 21 23 29 28 23 19 15 11 9
10 8 8 7 6 5 7 7 6 7 8 8 7 9 11 10 10 10 10 12 12 11 11 15 18 19 20 21 20 24 25 27 28 20 15 21 28 26 20 15 12 12 10
11 10 12 7 6 6 9 9 8 8 10 10 9 11 12 11 9 9 12 15 14 11 12 15 18 21 23 23 23 22 25 27 29 25 22 23 23 19 17 16 13 10 8
13 13 12 8 8 9 14 13 11 11 10 11 12 13 12 9 9 10 12 14 15 14 14 14 15 19 21 23 26 24 27 26 24 21 18 18 16 18 15 12 11 9 6
15 15 13 11 10 11 14 15 13 12 10 11 10 12 13 10 9 9 8 13 14 15 16 15 15 15 18 22 21 23 24 27 23 18 14 16 15 16 14 14 14 8 4
17 16 15 14 12 12 14 13 13 11 12 12 10 9 10 10 11 10 8 11 15 16 17 19 21 18 18 18 20 22 18 15 19 22 22 15 14 17 16 14 14 11 7
19 18 17 17 16 14 13 12 10 10 13 14 9 8 11 12 12 11 10 14 16 17 19 23 25 26 25 23 21 18 14 10 10 10 5 7 9 16 16 13 14 13 11
22 20 18 17 17 19 16 12 9 11 14 14 10 10 12 14 15 14 15 16 16 18 20 21 23 20 18 16 15 12 7 7 9 9 7 6 8 14 15 13 14 15 5
26 24 21 17 19 22 18 14 12 11 12 12 11 10 11 14 15 14 14 19 21 20 18 20 22 20 20 13 8 2 8 10 11 13 11 7 7 14 13 12 11 16 10
27 25 22 19 20 20 21 19 16 12 13 11 12 12 11 13 14 14 13 16 18 19 19 19 18 17 18 13 3 4 10 13 12 15 16 14 12 13 12 11 11 11 14
27 27 24 22 19 19 20 21 19 17 15 13 12 11 11 12 13 14 14 13 14 16 18 17 16 17 15 9 7 9 5 11 15 16 17 16 16 16 15 15 15 14 12
26 28 26 25 21 21 21 23 22 21 19 16 14 12 11 12 13 13 13 12 10 11 12 14 16 17 16 14 13 12 8 12 14 17 18 18 17 19 21 23 23 22 21
29 30 29 25 24 24 23 24 25 24 22 20 18 16 14 14 13 15 15 14 14 14 13 14 14 15 16 15 14 13 14 14 15 16 18 19 22 24 26 26 25 23 21
32 32 30 28 29 25 25 26 27 25 25 25 23 20 20 18 18 16 18 17 16 15 14 15 16 17 17 16 16 17 16 15 14 16 19 25 27 27 24 23 23 21 19
29 30 32 31 29 30 27 24 26 28 28 25 23 25 23 19 20 20 19 17 17 19 19 18 19 20 21 21 20 19 17 17 17 20 25 27 29 28 26 25 22 22 25
33 31 33 32 31 30 29 28 23 23 23 26 25 24 25 22 21 21 23 22 20 21 22 22 22 25 26 26 24 23 22 19 17 21 25 27 29 30 31 24 21 24 21
38 38 37 34 30 28 30 29 28 24 23 23 25 24 21 24 21 21 24 24 23 25 25 24 27 27 29 30 29 28 25 22 23 24 27 29 30 32 29 26 28 27 22
37 37 37 36 35 32 31 29 29 26 26 26 25 25 25 23 22 22 23 28 29 29 31 30 28 28 29 30 32 32 31 28 26 27 29 30 31 32 27 29 28 27 25
37 38 39 34 32 32 30 28 25 26 25 28 28 31 27 25 25 26 26 27 28 30 31 33 34 32 29 28 30 31 31 29 26 27 31 33 33 34 32 32 32 30 23
32 37 40 33 32 33 30 29 29 27 27 28 34 32 31 31 32 32 30 30 31 32 32 33 33 34 35 33 29 30 31 33 30 30 33 34 34 33 32 32 24 21 18
33 34 37 34 30 29 31 30 30 28 29 29 34 34 32 30 31 32 34 35 34 33 34 36 36 36 36 35 34 30 30 31 31 32 35 36 34 30 28 25 24 18 12
26 32 32 29 30 30 30 29 28 29 29 32 32 34 32 33 34 35 35 35 35 35 34 33 35 37 36 36 36 37 38 38 39 38 42 43 41 40 34 24 20 19 14
31 28 33 30 29 29 29 29 31 33 31 32 35 36 35 35 36 36 36 36 36 35 35 35 35 35 36 37 36 35 37 37 36 39 45 48 45 44 38 30 20 13 13
26 27 29 29 28 30 27 27 31 33 33 34 34 35 38 38 36 34 33 34 34 34 35 35 34 32 32 32 31 31 32 33 33 38 42 44 46 41 37 31 26 22 19
26 28 24 27 28 28 28 28 32 32 33 34 35 34 34 37 38 37 34 31 30 30 29 27 27 26 26 26 26 27 30 33 36 43 46 48 47 40 33 31 30 25 22
Wind_Direction
188 191 194 170 190 174 146 135 153 162 168 177 164 146 139 131 129 132 115 126 142 141 146 160 136 165 154 152 152 143 129 120 107 114 129 146 146 142 141 142 143 152 155
189 189 186 172 186 179 166 158 146 156 168 169 150 139 142 136 134 136 124 111 119 132 137 135 133 149 151 148 145 146 134 129 119 122 130 143 147 146 142 145 145 154 148
190 190 175 173 170 163 160 155 145 145 149 151 145 139 142 139 143 135 125 115 108 126 134 143 145 152 140 141 145 132 133 136 134 120 112 120 133 142 146 144 143 136 135
179 176 157 168 150 132 141 139 142 143 140 139 139 140 142 143 144 133 125 115 109 114 128 142 146 144 142 147 144 141 135 130 134 125 118 114 137 152 158 151 148 138 138
175 170 161 150 134 127 135 133 138 141 136 134 131 140 145 146 139 134 129 117 114 116 122 135 148 143 149 154 150 147 150 140 139 129 131 135 148 166 170 167 146 145 147
180 176 163 149 139 135 140 142 144 145 139 142 138 138 148 154 156 150 136 128 132 133 129 129 144 138 145 148 154 154 152 151 144 140 151 153 162 174 160 152 158 162 155
186 178 170 155 152 147 149 154 156 161 160 153 150 151 153 157 160 163 163 141 140 139 137 138 144 147 145 138 137 138 145 151 159 157 162 167 167 172 168 163 168 162 128
188 183 176 166 163 159 157 161 160 166 165 164 159 158 160 154 152 157 153 147 138 141 146 150 140 138 136 131 137 142 149 160 177 185 209 181 176 183 181 172 162 144 125
192 189 185 181 178 173 169 169 161 154 166 166 162 152 154 150 152 148 136 142 138 142 154 152 148 146 146 144 144 149 167 192 185 183 170 152 150 166 175 171 164 150 113
199 195 188 184 179 181 180 176 167 164 164 167 155 159 154 154 157 160 153 148 140 142 144 150 153 148 145 153 156 171 159 155 165 181 188 180 169 180 184 199 194 169 140
203 199 194 189 185 184 185 179 172 164 157 152 148 157 159 166 162 161 161 154 153 152 155 157 162 153 156 163 181 143 139 140 134 145 154 155 145 150 168 181 178 190 167
206 201 199 196 191 186 185 184 178 171 166 160 153 148 161 169 168 161 162 165 159 154 162 172 178 176 179 194 202 179 160 161 153 149 152 149 149 150 146 148 150 147 126
206 202 201 199 197 192 185 180 180 180 177 174 173 167 162 168 179 182 182 190 192 190 185 183 186 196 205 217 212 198 206 180 166 164 167 161 155 149 141 134 128 122 113
205 206 204 198 196 198 197 191 188 186 187 184 187 188 182 182 186 190 194 196 201 194 187 183 183 185 189 193 198 205 200 196 189 182 175 165 160 155 151 146 138 134 124
204 208 207 204 201 198 202 201 202 203 199 195 198 198 195 199 201 198 195 197 204 209 197 189 189 191 193 197 201 198 197 195 193 186 174 165 163 163 157 157 153 149 140
191 200 207 206 204 206 204 205 212 214 213 218 218 206 208 217 213 209 208 209 207 204 200 201 202 204 204 204 203 201 201 202 198 191 181 176 172 172 164 160 163 158 147
189 197 203 205 203 202 206 207 204 217 222 224 224 228 225 221 221 220 219 216 216 215 217 214 217 216 216 216 213 210 211 210 208 199 191 186 182 180 171 166 159 151 135
194 200 202 204 204 201 204 208 212 211 213 220 227 228 227 230 234 231 224 222 213 217 221 224 224 226 226 225 223 221 217 215 211 205 198 192 187 180 174 168 165 158 151
190 194 199 202 207 208 207 208 211 213 215 223 222 224 226 227 231 233 232 226 223 223 227 230 234 237 235 232 229 227 224 222 218 209 202 196 190 183 173 171 168 166 160
194 195 196 197 200 204 206 206 206 211 214 219 223 223 216 217 219 221 224 225 228 233 235 238 240 240 242 241 236 232 228 225 223 215 206 199 194 190 182 176 171 166 167
189 192 197 193 199 201 203 204 209 211 215 219 228 230 223 218 222 223 224 228 231 234 238 240 243 244 243 243 242 232 225 222 221 214 205 200 193 186 184 175 166 162 149
186 190 190 197 197 197 203 205 207 208 213 217 227 231 230 226 229 230 230 232 235 241 243 243 245 246 245 243 240 237 230 225 218 211 199 190 184 181 172 166 154 156 155
192 186 190 195 199 201 200 204 205 210 215 220 224 228 222 225 230 232 235 238 241 243 245 246 248 250 251 249 245 238 232 224 223 214 199 187 178 175 163 164 163 148 176
198 200 186 192 193 196 198 202 209 215 215 221 226 229 230 231 232 235 238 241 244 248 250 251 250 250 251 249 245 241 237 234 223 206 196 180 171 167 161 165 163 169 191
199 205 195 187 190 195 201 204 212 218 219 223 226 229 232 235 238 240 242 245 248 252 255 255 254 254 253 252 249 241 232 225 209 195 182 174 168 167 166 160 174 189 193
215 202 211 188 191 193 200 204 214 218 225 227 230 234 235 241 242 247 252 253 250 252 254 254 253 250 248 244 239 234 223 214 198 190 183 175 168 169 164 171 183 184 190
Height
730 732 734 735 737 738 738 739 741 743 744 746 747 748 750 751 752 753 753 754 754 756 757 758 759 761 765 769 774 777 781 785 793 800 805 812 818 825 832 838 842 845 848
729 732 733 735 736 737 738 740 741 743 745 747 748 749 750 752 753 755 755 756 756 757 759 760 762 765 767 771 775 780 785 789 794 801 810 816 821 829 835 840 843 848 850
729 731 733 735 736 737 738 740 742 744 746 747 749 750 752 754 755 757 757 758 759 760 762 764 766 768 772 776 780 784 788 794 799 803 808 813 822 830 836 841 844 847 849
728 731 733 735 737 737 738 740 743 745 747 749 750 752 754 756 757 759 759 761 763 764 766 767 769 772 775 778 782 785 791 796 802 809 813 817 826 833 838 840 844 847 850
728 731 734 735 738 739 739 741 743 746 748 750 752 754 756 758 759 761 762 764 765 767 769 771 773 777 780 782 785 790 794 800 805 810 816 822 828 834 838 841 844 848 850
727 731 734 736 738 740 741 742 745 747 749 751 753 755 758 760 762 764 765 766 769 771 772 775 778 780 784 787 791 794 797 801 806 811 816 822 827 832 835 838 842 847 849
726 730 734 737 739 742 743 745 746 748 750 753 755 757 758 761 763 765 767 768 770 772 775 778 782 785 789 792 795 799 803 807 810 811 816 820 824 828 832 837 842 844 846
725 729 733 736 739 743 745 747 748 750 752 754 756 758 760 762 764 767 769 771 772 775 778 781 784 789 794 796 800 804 806 809 813 816 819 822 825 829 833 836 839 841 844
723 728 732 736 738 742 745 748 749 751 753 755 757 759 761 763 766 769 771 773 775 778 781 785 788 792 796 800 803 806 808 811 813 817 820 823 826 829 832 835 838 840 845
721 725 730 735 737 741 745 748 750 752 754 757 759 761 764 765 768 771 773 774 777 780 785 788 792 795 798 801 804 806 808 810 813 816 820 823 824 828 831 834 836 838 841
719 724 729 733 737 740 744 747 750 753 756 759 761 763 766 768 770 773 775 777 780 783 786 789 793 797 801 803 806 808 810 812 814 816 819 822 824 826 830 833 836 838 840
717 722 727 732 736 739 743 747 750 753 756 759 762 765 767 769 772 774 777 780 782 784 787 791 794 798 802 805 808 811 813 814 816 817 820 823 825 828 831 833 835 838 840
715 720 725 730 735 738 742 746 750 753 756 759 762 764 766 770 773 776 779 782 784 786 789 792 795 798 802 805 807 810 812 814 815 817 820 823 826 828 831 834 837 839 840
712 717 722 727 733 737 741 744 748 752 755 758 761 764 767 769 772 775 778 781 783 787 789 792 795 798 801 804 807 809 811 813 814 816 819 822 826 829 832 833 835 838 840
708 714 719 724 729 734 739 742 746 749 752 756 759 762 765 768 771 774 777 780 783 786 789 792 795 798 800 803 806 808 810 812 814 816 817 820 825 828 831 832 834 837 841
704 710 715 720 725 730 735 740 744 747 750 753 755 759 762 766 769 773 777 780 783 786 789 791 793 796 799 801 804 806 809 810 812 814 817 820 822 826 829 833 835 837 839
695 702 709 715 720 725 730 734 739 744 747 751 754 757 761 763 767 771 774 778 781 784 786 788 791 793 796 798 800 803 805 808 811 813 815 818 820 824 828 832 836 839 843
688 695 702 709 714 719 723 727 732 736 740 744 748 753 757 761 764 767 770 773 776 779 781 784 786 788 790 794 797 799 802 804 806 810 813 816 819 822 826 831 834 837 843
681 687 694 701 707 712 717 722 726 730 733 737 742 746 751 755 759 762 764 766 768 771 774 777 780 782 785 788 791 794 797 800 802 805 809 812 816 820 825 829 832 836 839
673 678 686 693 701 707 711 715 719 723 727 730 734 737 742 747 750 753 756 759 762 764 767 770 773 776 778 781 784 788 792 796 798 800 803 807 812 816 820 825 829 833 836
665 672 679 687 692 697 703 707 711 716 719 722 725 728 733 737 740 744 748 751 754 757 759 762 764 767 770 773 777 779 781 785 790 794 799 805 810 815 820 825 834 835 837
657 663 671 677 684 690 694 698 703 707 711 714 718 722 726 730 733 736 738 741 744 747 749 752 755 757 760 763 767 772 776 779 783 787 791 797 805 816 824 831 828 838 842
656 656 663 671 676 681 687 692 696 700 703 706 710 713 718 721 724 727 729 732 735 738 741 744 745 747 749 753 756 759 762 762 767 774 780 788 793 804 815 831 836 831 842
648 655 653 661 667 673 678 683 687 691 694 698 702 705 709 711 714 716 719 723 726 729 732 734 737 738 739 741 744 748 751 757 761 766 772 777 786 798 804 818 830 835 841
643 651 652 653 659 665 672 676 680 684 687 689 692 696 699 702 704 707 711 714 717 720 722 725 727 730 733 736 738 742 745 750 755 763 771 780 786 796 804 808 819 829 835
642 642 652 647 652 658 663 667 671 675 681 681 684 688 692 694 697 700 702 706 709 712 715 717 719 722 726 728 730 734 738 741 749 756 765 770 783 795 802 808 817 824 831